Overview Statistics Trail Chart Weather Telemetry Raw packets
 

This is the latest recevied weather packets stored in our database for station/object SR4DIG-13. If no packets are shown the sender has not sent any weather packets the latest 10 day(s).

<< 67 68 69 70 71 72 73 >>
Time Temp. Humidity Pressure Rain* Wind** Luminosity Snow
1788138218 16.11° C 77% 1013.5 hPa 0 mm - - -
1788137917 15.56° C 76% 1013.5 hPa 0 mm - - -
1788137422 15.56° C 76% 1013.6 hPa 0 mm - - -
1788137121 16.11° C 75% 1013.6 hPa 0 mm - - -
1788136820 16.11° C 75% 1013.6 hPa 0 mm - - -
1788136519 16.67° C 73% 1013.6 hPa 0 mm - - -
1788136218 17.22° C 71% 1013.9 hPa 0 mm - - -
1788135918 17.22° C 71% 1013.9 hPa 0 mm - - -
1788135617 17.22° C 70% 1014.2 hPa 0 mm - - -
1788135321 17.22° C 71% 1013.7 hPa 0 mm - - -
1788135015 17.22° C 71% 1013.6 hPa 0 mm - - -
1788134714 17.22° C 71% 1013.6 hPa 0 mm - - -
1788134413 17.22° C 72% 1013.6 hPa 0 mm - - -
1788134112 17.22° C 72% 1013.8 hPa 0 mm - - -
1788133811 17.22° C 72% 1013.7 hPa 0 mm - - -
1788133510 16.67° C 72% 1013.7 hPa 0 mm - - -
1788133209 16.67° C 73% 1013.6 hPa 0 mm - - -
1788132908 16.67° C 74% 1013.7 hPa 0 mm - - -
1788132607 16.67° C 74% 1013.7 hPa 0 mm - - -
1788132307 16.11° C 74% 1013.7 hPa 0 mm - - -
1788132006 16.11° C 75% 1013.8 hPa 0 mm - - -
1788131517 16.11° C 75% 1013.8 hPa 0 mm - - -
1788131216 16.11° C 75% 1013.8 hPa 0 mm - - -
1788130915 16.11° C 75% 1013.8 hPa 0 mm - - -
1788130614 16.67° C 74% 1013.8 hPa 0 mm - - -

* Rain latest hour (hover to see other rain measurements)
** Current wind speed in m/s (hover to see current wind gust speed)